Location: Unspecified
(0.0000°N, 0.0000°E)
Time: 22:38:27
(UTC+00:00)

Hubble Space Telescope - Pass Details

Date: 29 November 2022
Orbit: 530 x 534 km, 28.5° (Epoch: 01 December)

Event Time Altitude Azimuth Distance (km) Brightness Sun altitude
Rises 05:08:10 0° 229° (SW) 2,656 4.0 -9.3°
Reaches altitude 10° 05:10:30 10° 222° (SW) 1,765 3.2 -8.8°
Maximum altitude 05:14:23 42° 150° (SSE) 756 2.0 -7.9°
Drops below altitude 10° 05:18:15 10° 78° (ENE) 1,760 4.4 -7.0°
Sets 05:20:35 0° 71° (ENE) 2,647 5.2 -6.4°
